Evanston, WY

5:19 PM MDT on April 26, 2018 (GMT -0600)
Evanston-Uinta County Burns

Weather History for KEVW - April, 2013

Change the Weather History Date:

Thursday, April 11, 2013

  Actual Average Record
Temperature  
Mean Temperature 39 °F 38 °F  
Max Temperature 46 °F 48 °F 69 °F (2012)
Min Temperature 32 °F 28 °F 8 °F (1997)
Degree Days  
Heating Degree Days 26 27  
Month to date heating degree days 285 312  
Since 1 July heating degree days 6876 7380  
Cooling Degree Days 0 0  
Month to date cooling degree days 0 0  
Year to date cooling degree days 0 0  
Moisture  
Dew Point 29 °F    
Average Humidity 71    
Maximum Humidity 92    
Minimum Humidity 49    
Precipitation  
Precipitation 0.00 in 0.03 in 0.22 in (2006)
Month to date precipitation 0.53 0.38  
Year to date precipitation 1.41 2.39  
Sea Level Pressure  
Sea Level Pressure 29.91 in    
Wind  
Wind Speed 12 mph (WSW)    
Max Wind Speed 20 mph    
Max Gust Speed 21 mph    
Visibility 7 miles    
Events Fog , Snow    
T = Trace of Precipitation, MM = Missing Value Source: NWS Daily Summary

Daily Weather History Graph

Daily Weather History Graph

Search for Another Location

Airport or City:

Astronomy

Apr. 11, 2013 Rise Set
Actual Time 6:50 AM MDT 8:00 PM MDT
Civil Twilight 6:22 AM MDT 8:28 PM MDT
Nautical Twilight 5:48 AM MDT 9:02 PM MDT
Astronomical Twilight 5:12 AM MDT 9:38 PM MDT
Moon 7:23 AM MDT (4/11) 9:39 PM MDT (4/11)
Length of Visible Light 14h 06m
Length of Day
13h 09m
New Moon, 2% of the Moon is Illuminated
Apr 11
New Moon
Apr 18
First Quarter
Apr 25
Full
May 2
Last Quarter
May 9
New

Hourly Weather History & Observations

Time (MDT) Temp. Windchill Dew Point Humidity Pressure Visibility Wind Dir Wind Speed Gust Speed Precip Events Conditions
12:53 AM 34.0 °F 25.0 °F 25.0 °F 70% 29.94 in 10.0 mi SW 12.7 mph - N/A   Overcast
1:53 AM 34.0 °F 22.4 °F 28.9 °F 82% 29.92 in 10.0 mi SW 20.7 mph - N/A   Overcast
2:28 AM 33.8 °F 22.8 °F 30.2 °F 87% 29.94 in 6.0 mi WSW 18.4 mph - 0.00 in Snow Light Snow
2:35 AM 33.8 °F 22.8 °F 30.2 °F 87% 29.94 in 2.5 mi SW 18.4 mph - 0.00 in Snow Light Snow
2:41 AM 32.0 °F 20.1 °F 30.2 °F 93% 29.93 in 3.0 mi SW 19.6 mph - 0.00 in Snow Light Snow
2:53 AM 32.0 °F 22.1 °F 30.0 °F 92% 29.93 in 4.0 mi SW 13.8 mph - 0.00 in   Overcast
3:21 AM 32.0 °F 20.1 °F 30.2 °F 93% 29.92 in 10.0 mi WSW 19.6 mph - N/A   Overcast
3:40 AM 32.0 °F 22.1 °F 30.2 °F 93% 29.92 in 10.0 mi WSW 13.8 mph - N/A   Overcast
3:53 AM 32.0 °F 23.0 °F 30.0 °F 92% 29.89 in 10.0 mi SW 11.5 mph - N/A   Mostly Cloudy
4:15 AM 32.0 °F 24.8 °F 30.2 °F 93% 29.92 in 9.0 mi SW 8.1 mph - N/A   Mostly Cloudy
4:26 AM 32.0 °F 23.6 °F 30.2 °F 93% 29.92 in 2.5 mi WSW 10.4 mph - 0.00 in Snow Light Snow
4:30 AM 32.0 °F 24.2 °F 30.2 °F 93% 29.92 in 7.0 mi SW 9.2 mph - 0.00 in Snow Light Snow
4:46 AM 32.0 °F 23.0 °F 30.2 °F 93% 29.92 in 10.0 mi WSW 11.5 mph - 0.00 in   Overcast
4:53 AM 32.0 °F 22.5 °F 30.9 °F 96% 29.89 in 10.0 mi WSW 12.7 mph - 0.00 in   Overcast
5:09 AM 32.0 °F 22.5 °F 30.2 °F 93% 29.92 in 10.0 mi WSW 12.7 mph - N/A   Overcast
5:18 AM 32.0 °F 23.6 °F 30.2 °F 93% 29.92 in 8.0 mi SW 10.4 mph - N/A   Overcast
5:29 AM 32.0 °F 23.6 °F 30.2 °F 93% 29.92 in 1.8 mi SW 10.4 mph - N/A   Overcast
5:36 AM 32.0 °F 23.6 °F 32.0 °F 100% 29.92 in 1.2 mi SW 10.4 mph - N/A   Overcast
5:39 AM 32.0 °F 23.0 °F 32.0 °F 100% 29.92 in 2.0 mi SW 11.5 mph - N/A   Overcast
5:53 AM 32.0 °F 24.2 °F 30.9 °F 96% 29.88 in 10.0 mi SW 9.2 mph - N/A   Overcast
6:10 AM 32.0 °F 23.0 °F 30.2 °F 93% 29.91 in 10.0 mi SW 11.5 mph - N/A   Overcast
6:47 AM 32.0 °F 23.6 °F 30.2 °F 93% 29.91 in 1.8 mi WSW 10.4 mph - N/A   Overcast
6:53 AM 32.0 °F 24.2 °F 30.9 °F 96% 29.89 in 1.0 mi SW 9.2 mph - N/A   Overcast
7:01 AM 32.0 °F 24.8 °F 30.2 °F 93% 29.92 in 0.5 mi SW 8.1 mph - N/A Fog Fog
7:51 AM 32.0 °F 23.6 °F 30.2 °F 93% 29.93 in 2.0 mi SW 10.4 mph - N/A   Overcast
7:53 AM 32.0 °F 23.6 °F 30.9 °F 96% 29.91 in 5.0 mi SW 10.4 mph - N/A   Overcast
7:59 AM 32.0 °F 24.2 °F 30.2 °F 93% 29.94 in 1.8 mi SW 9.2 mph - N/A   Overcast
8:03 AM 32.0 °F 23.6 °F 32.0 °F 100% 29.94 in 1.2 mi SW 10.4 mph - N/A   Overcast
8:09 AM 32.0 °F 22.5 °F 32.0 °F 100% 29.94 in 2.0 mi WSW 12.7 mph 19.6 mph N/A   Mostly Cloudy
8:17 AM 32.0 °F 23.0 °F 30.2 °F 93% 29.94 in 10.0 mi WSW 11.5 mph 19.6 mph N/A   Mostly Cloudy
8:53 AM 35.1 °F 28.6 °F 30.0 °F 82% 29.92 in 10.0 mi WSW 8.1 mph - N/A   Mostly Cloudy
9:53 AM 37.9 °F 28.5 °F 27.0 °F 65% 29.92 in 10.0 mi NNW 17.3 mph 23.0 mph N/A   Overcast
11:53 AM 39.9 °F 32.5 °F 27.0 °F 60% 29.93 in 10.0 mi NW 12.7 mph 20.7 mph N/A   Clear
12:53 PM 39.9 °F 32.9 °F 27.0 °F 60% 29.92 in 10.0 mi NW 11.5 mph - N/A   Clear
1:53 PM 44.1 °F 40.1 °F 28.0 °F 53% 29.89 in 10.0 mi Variable 6.9 mph - N/A   Mostly Cloudy
2:53 PM 44.1 °F 40.1 °F 28.0 °F 53% 29.89 in 10.0 mi NNW 6.9 mph 17.3 mph N/A   Scattered Clouds
3:53 PM 43.0 °F 36.4 °F 28.0 °F 56% 29.88 in 10.0 mi NNW 12.7 mph - N/A   Mostly Cloudy
4:53 PM 46.0 °F 39.9 °F 24.1 °F 42% 29.86 in 10.0 mi WNW 13.8 mph - N/A   Mostly Cloudy
5:53 PM 44.1 °F 37.7 °F 23.0 °F 43% 29.87 in 10.0 mi NW 12.7 mph 20.7 mph N/A   Scattered Clouds
6:53 PM 42.1 °F 37.1 °F 23.0 °F 47% 29.87 in 10.0 mi West 8.1 mph - N/A   Scattered Clouds
7:53 PM 39.0 °F 31.8 °F 28.0 °F 65% 29.89 in 10.0 mi West 11.5 mph - N/A   Mostly Cloudy
8:53 PM 37.0 °F 28.9 °F 28.0 °F 70% 29.90 in 10.0 mi West 12.7 mph - N/A   Partly Cloudy
9:53 PM 35.1 °F 26.9 °F 27.0 °F 72% 29.90 in 10.0 mi WSW 11.5 mph - N/A   Clear
10:53 PM 34.0 °F 27.2 °F 27.0 °F 75% 29.91 in 10.0 mi WSW 8.1 mph - N/A   Clear
11:53 PM 34.0 °F 27.2 °F 27.0 °F 75% 29.90 in 10.0 mi WSW 8.1 mph - N/A   Mostly Cloudy